Location: Breitenfeld
(46.8500°N, 15.6333°E)
Time: 00:18:56
(UTC+00:00)

Transit 4B - Pass Details

Date: 01 June 2022
Orbit: 948 x 1097 km, 32.4° (Epoch: 03 July)

Event Time Altitude Azimuth Distance (km) Brightness Sun altitude
Exits shadow 02:13:57 - 237° (WSW) 2,879 10.3 -7.8°
Reaches altitude 10° 02:14:22 10° 234° (SW) 2,766 10.2 -7.8°
Maximum altitude 02:19:16 22° 187° (S) 2,002 9.7 -7.2°
Drops below altitude 10° 02:24:03 10° 139° (SE) 2,695 10.8 -6.6°
Sets 02:27:15 0° 125° (SE) 3,624 11.7 -6.2°
